CAPE
821 974 566 983 1089 362 821 654 638 243 123 139 133 241 210 93 46 117 12 452 109 18 509 719 885 1021 631 152 331 818 700 349 99 610 326 227 287 241 168 461 475 271 480
803 898 690 872 669 669 143 487 426 319 110 35 20 172 194 179 279 219 99 528 36 0 4 661 1042 870 755 336 220 397 631 484 612 319 155 238 314 375 560 338 778 615 412
696 618 742 766 713 636 217 34 443 296 166 66 0 34 97 100 131 319 76 8 113 61 108 472 898 581 643 654 522 297 387 668 667 693 613 416 380 411 184 575 686 505 548
643 516 636 635 707 634 299 1 6 244 221 182 88 87 55 62 60 200 173 63 297 179 195 405 481 360 383 621 776 748 401 171 227 386 559 740 485 375 312 168 110 173 486
765 465 443 456 576 603 659 335 17 79 157 213 331 302 286 168 82 7 82 191 266 386 274 192 416 526 436 456 540 619 546 492 319 200 130 178 434 354 287 178 107 105 115
753 574 379 379 446 526 612 599 442 264 299 324 317 474 337 311 154 82 36 2 69 185 354 310 275 394 603 520 471 498 296 289 294 367 257 263 313 326 305 212 128 124 129
762 612 429 316 255 358 472 510 576 568 420 321 380 305 258 274 298 322 357 203 86 31 240 291 268 322 331 602 574 561 572 466 299 257 265 269 275 284 240 169 169 127 111
764 660 474 436 367 296 387 393 405 481 571 476 396 229 244 142 91 86 129 320 404 356 179 192 259 319 292 488 631 651 618 569 585 548 438 353 243 193 207 259 381 508 516
709 624 440 392 513 453 450 518 522 532 506 444 454 312 146 111 66 55 69 108 306 462 437 355 430 378 378 442 602 731 821 738 687 732 679 626 496 383 411 420 293 200 263
731 646 473 321 402 475 504 553 530 470 454 391 233 275 69 50 41 35 70 123 214 197 190 173 253 377 489 570 658 787 831 846 758 806 794 754 530 451 328 224 32 36 46
777 705 589 361 250 256 319 445 529 565 542 441 388 266 216 179 126 136 79 87 106 112 108 164 279 221 185 147 144 219 626 889 899 876 1007 725 517 396 232 23 14 44 120
678 693 706 528 423 341 320 341 436 498 499 478 359 254 276 141 170 67 31 54 47 60 41 49 56 112 71 14 23 100 543 764 961 753 733 478 416 185 44 11 14 40 104
553 583 613 586 501 393 437 375 323 312 420 438 503 346 314 196 76 24 65 82 82 82 55 40 52 65 101 146 141 324 541 725 725 433 253 178 54 1 0 0 0 15 42
608 553 568 560 561 462 366 349 426 364 270 276 262 240 244 228 130 143 168 108 121 110 78 78 34 73 72 67 131 311 468 437 313 174 105 25 0 0 0 0 0 0 0
564 611 649 627 584 513 470 432 390 426 400 294 256 320 345 365 375 308 275 217 151 106 85 59 20 5 1 34 72 91 172 150 106 69 10 0 0 0 0 0 0 0 0
830 841 813 728 665 664 651 562 518 437 393 354 368 422 421 406 389 496 490 320 266 224 124 54 20 0 5 10 10 23 26 22 62 52 1 0 0 0 0 0 0 0 0
847 848 786 804 788 771 687 592 533 469 396 429 465 430 362 415 372 479 477 338 209 180 173 89 18 29 31 22 57 43 25 54 66 14 0 0 0 0 0 0 0 0 4
752 801 852 798 863 780 698 656 514 614 449 411 361 371 418 436 457 421 361 231 162 78 80 48 30 42 30 75 67 43 16 4 0 0 0 0 0 0 0 0 0 0 0
401 435 661 799 876 813 593 603 658 567 425 344 342 368 357 419 411 427 371 260 166 90 25 10 9 14 44 69 52 24 8 1 0 0 0 0 0 0 0 0 0 0 0
142 202 156 214 405 544 622 492 615 559 364 428 447 275 357 382 293 330 387 336 228 178 72 44 21 20 62 47 42 19 1 0 2 0 0 0 0 0 0 0 0 0 0
15 1 44 67 17 255 461 490 391 301 378 468 441 355 380 384 323 360 356 298 202 215 117 71 63 52 58 33 44 0 1 0 0 0 0 0 0 0 0 0 0 0 0
0 0 0 0 0 40 398 422 357 286 376 365 355 296 333 414 375 350 337 345 171 129 122 38 33 44 34 55 15 0 0 0 3 0 0 0 0 0 0 0 0 0 0
1 0 0 0 0 22 128 296 236 227 365 366 360 305 317 399 381 387 276 212 175 217 264 125 69 52 14 38 63 16 0 0 0 0 0 0 0 0 0 0 0 0 0
0 0 0 0 0 0 25 130 91 134 204 321 325 332 311 359 350 360 278 194 165 162 105 108 95 81 82 48 74 70 22 0 0 0 0 0 0 0 0 0 0 0 0
0 0 1 7 89 47 79 154 131 105 111 157 263 308 300 307 349 330 318 301 300 151 58 40 68 58 60 43 79 48 36 0 0 0 0 0 0 0 0 1 0 0 0
1 7 76 76 126 217 134 106 105 90 49 62 78 194 238 333 311 244 248 201 191 143 81 65 5 1 0 0 20 60 31 0 0 0 0 0 0 0 2 1 0 0 0
CIN
-41 -15 -56 -11 -5 -79 -36 -64 -69 -85 -97 -89 -80 -68 -63 -73 -78 -103 -88 -75 -81 -91 -59 -38 -16 -4 -26 -75 -49 -7 -7 -21 -89 -5 -17 -20 -2 -18 -38 -0 -1 -10 -0
-45 -30 -52 -30 -47 -46 -131 -69 -81 -93 -102 -114 -119 -76 -65 -66 -55 -65 -101 -71 -105 -0 -18 -41 -22 -21 -26 -63 -75 -44 -10 -9 -0 -30 -57 -28 -10 -2 -0 -5 -0 -0 -2
-63 -63 -47 -42 -45 -49 -105 -206 -67 -95 -111 -117 -0 -121 -84 -74 -63 -51 -82 -80 -76 -73 -67 -47 -31 -34 -37 -41 -52 -74 -64 -20 -2 -4 -11 -16 -13 -2 -32 -1 -0 -3 -3
-74 -86 -62 -68 -55 -43 -83 -15 -127 -95 -98 -92 -95 -74 -82 -88 -72 -40 -48 -74 -65 -63 -63 -63 -55 -54 -42 -38 -38 -45 -65 -88 -72 -40 -19 -3 -12 -17 -16 -29 -43 -19 -3
-66 -92 -87 -87 -66 -58 -53 -97 -95 -135 -84 -76 -76 -68 -59 -63 -88 -42 -81 -58 -64 -63 -65 -62 -49 -54 -53 -49 -41 -41 -38 -41 -57 -72 -72 -56 -24 -27 -26 -33 -38 -31 -23
-65 -84 -103 -93 -71 -54 -43 -48 -60 -77 -67 -49 -46 -39 -58 -54 -70 -118 -115 -24 -92 -67 -58 -63 -57 -47 -46 -37 -31 -37 -39 -40 -44 -52 -49 -48 -50 -38 -31 -30 -32 -24 -21
-62 -74 -85 -91 -91 -73 -65 -53 -46 -44 -52 -70 -37 -45 -59 -55 -42 -46 -54 -57 -86 -101 -64 -75 -65 -67 -59 -45 -33 -33 -32 -40 -42 -45 -48 -41 -45 -40 -34 -37 -33 -26 -21
-66 -65 -69 -70 -81 -76 -60 -49 -46 -43 -37 -39 -18 -36 -21 -49 -93 -83 -62 -46 -49 -65 -76 -76 -63 -65 -65 -59 -45 -35 -31 -24 -28 -33 -37 -44 -43 -39 -32 -26 -23 -15 -7
-66 -61 -70 -66 -56 -55 -47 -49 -58 -55 -44 -41 -32 -14 -37 -81 -107 -110 -92 -74 -58 -59 -61 -67 -51 -55 -65 -64 -55 -44 -30 -26 -26 -26 -22 -19 -24 -30 -24 -19 -30 -42 -31
-57 -64 -65 -70 -56 -49 -46 -45 -53 -50 -39 -27 -55 -47 -65 -73 -67 -93 -110 -104 -109 -103 -107 -100 -92 -81 -68 -59 -57 -64 -62 -57 -34 -24 -12 -13 -15 -13 -15 -24 -54 -74 -64
-49 -48 -54 -66 -65 -64 -56 -47 -40 -44 -34 -38 -44 -60 -54 -54 -60 -32 -75 -70 -85 -97 -101 -101 -107 -120 -114 -118 -107 -93 -73 -69 -48 -33 -14 -11 -16 -21 -32 -54 -61 -51 -32
-66 -52 -49 -49 -56 -57 -51 -54 -46 -32 -30 -35 -49 -59 -39 -39 -41 -48 -38 -80 -78 -89 -92 -94 -94 -103 -130 -164 -156 -115 -71 -80 -53 -31 -29 -24 -28 -42 -59 -74 -65 -48 -45
-154 -80 -54 -50 -54 -56 -49 -53 -45 -42 -32 -34 -37 -45 -50 -52 -63 -59 -30 -62 -71 -95 -84 -103 -112 -100 -84 -91 -98 -60 -53 -66 -44 -32 -47 -54 -59 -11 -0 -0 -13 -64 -46
-172 -135 -88 -66 -53 -64 -58 -46 -35 -35 -45 -39 -45 -49 -49 -60 -67 -59 -31 -22 -27 -62 -107 -93 -123 -76 -53 -58 -67 -54 -64 -65 -56 -55 -63 -76 -0 -0 -0 -0 -0 -0 -0
-184 -131 -101 -74 -57 -66 -61 -46 -35 -26 -30 -42 -48 -46 -51 -53 -47 -38 -33 -31 -27 -66 -111 -128 -80 -103 -45 -78 -75 -65 -54 -64 -61 -66 -74 -0 -0 -0 -0 -0 -0 -0 -0
-87 -84 -70 -79 -67 -69 -60 -46 -33 -33 -27 -36 -42 -38 -40 -45 -41 -29 -26 -42 -25 -9 -38 -93 -75 -0 -18 -21 -45 -59 -61 -71 -55 -67 -37 -0 -0 -0 -0 -0 -0 -0 -0
-63 -54 -51 -50 -57 -57 -68 -57 -50 -42 -37 -30 -26 -28 -48 -46 -47 -17 -7 -31 -49 -36 -32 -57 -85 -53 -27 -45 -34 -51 -68 -47 -36 -55 -27 -0 -0 -0 -0 -0 -0 -23 -92
-53 -69 -72 -65 -68 -51 -58 -46 -46 -42 -42 -37 -27 -31 -38 -43 -43 -23 -29 -23 -54 -77 -71 -81 -88 -48 -43 -36 -47 -64 -78 -93 -2 -1 -0 -0 -0 -0 -0 -0 -0 -0 -4
-81 -89 -65 -61 -51 -44 -31 -42 -44 -37 -66 -57 -36 -33 -53 -45 -60 -39 -38 -21 -23 -47 -86 -88 -75 -108 -63 -55 -48 -57 -92 -107 -0 -0 -0 -0 -0 -0 -0 -0 -0 -0 -0
-28 -70 -92 -80 -64 -70 -65 -33 -37 -43 -52 -45 -36 -46 -36 -29 -71 -68 -65 -39 -31 -18 -40 -67 -77 -72 -38 -44 -34 -43 -42 -0 -6 -0 -12 -0 -0 -0 -0 -0 -0 -0 -0
-81 -15 -149 -55 -39 -39 -61 -38 -44 -54 -57 -46 -35 -32 -36 -32 -51 -59 -72 -82 -45 -23 -25 -30 -20 -19 -15 -36 -26 -0 -4 -0 -1 -5 -0 -0 -0 -0 -0 -0 -0 -0 -0
-43 -0 -0 -0 -0 -75 -83 -55 -30 -35 -39 -38 -40 -40 -43 -34 -33 -55 -43 -61 -82 -51 -27 -36 -35 -24 -31 -27 -35 -0 -0 -0 -0 -0 -0 -0 -0 -0 -0 -0 -0 -0 -0
-10 -0 -0 -0 -0 -71 -80 -50 -52 -25 -25 -30 -36 -38 -41 -41 -44 -40 -53 -62 -99 -68 -37 -31 -24 -37 -19 -46 -42 -58 -0 -0 -0 -0 -0 -0 -1 -4 -0 -0 -0 -0 -0
-0 -0 -0 -0 -0 -0 -102 -54 -87 -73 -54 -31 -33 -40 -45 -40 -37 -39 -42 -49 -61 -88 -90 -68 -55 -47 -50 -64 -52 -38 -62 -0 -0 -0 -0 -0 -0 -0 -0 -0 -0 -0 -0
-14 -0 -30 -48 -60 -84 -61 -62 -117 -104 -79 -71 -45 -58 -61 -48 -56 -42 -35 -37 -51 -75 -127 -106 -86 -89 -85 -90 -95 -92 -69 -0 -0 -0 -0 -0 -0 -0 -1 -0 -0 -0 -0
-26 -34 -53 -38 -44 -39 -49 -43 -35 -57 -65 -76 -135 -88 -86 -64 -70 -69 -70 -57 -72 -128 -95 -99 -9 -4 -0 -0 -120 -88 -95 -0 -0 -0 -0 -0 -0 -5 -1 -0 -0 -0 -0
Wind_Speed
13 5 3 2 1 0 1 4 2 9 13 14 16 18 18 21 23 15 9 15 16 16 15 19 21 18 17 16 15 14 12 12 11 10 10 9 9 10 11 9 9 11 8
11 6 2 1 5 6 6 1 4 4 9 18 24 24 20 21 17 10 5 7 11 15 12 13 16 17 16 13 12 12 11 11 10 9 9 9 8 9 9 10 9 9 8
9 9 2 4 10 10 13 10 11 10 13 20 28 27 23 24 17 12 4 4 8 10 12 13 14 13 13 12 10 10 9 10 9 9 8 8 8 8 9 8 9 10 10
13 11 11 13 11 13 13 15 13 17 19 20 29 29 23 22 9 15 7 2 2 2 3 24 19 14 11 11 9 9 9 8 8 9 8 8 8 8 8 9 8 7 8
11 16 19 20 16 7 13 12 10 9 17 25 29 30 29 24 3 13 10 8 9 6 4 9 19 17 15 13 9 9 9 7 7 8 8 7 7 8 8 9 8 7 8
16 13 17 19 10 9 16 16 13 18 14 15 17 25 26 27 23 18 16 15 11 10 9 5 4 6 18 15 9 9 8 7 6 7 8 7 7 7 10 10 9 8 8
27 22 16 16 12 10 19 7 10 14 16 14 14 18 21 23 27 27 24 20 14 11 9 10 9 6 7 15 14 10 9 7 8 9 9 10 10 10 11 11 9 9 10
26 25 21 18 15 9 11 7 7 16 17 12 17 20 26 29 29 29 28 28 26 20 15 14 14 11 10 9 7 10 10 8 9 9 9 10 11 9 10 11 8 9 10
23 25 23 21 19 17 14 10 10 9 12 15 14 16 20 23 24 22 22 23 28 29 28 24 21 18 17 16 16 16 9 9 10 8 8 9 7 7 9 6 6 6 4
24 24 23 21 20 20 21 14 9 9 11 14 19 17 21 19 21 25 22 21 23 26 29 31 30 21 18 18 16 17 17 9 9 8 7 8 6 5 5 9 8 10 7
20 22 23 21 21 20 23 19 12 11 10 13 9 15 14 21 25 26 28 27 25 25 26 24 24 24 22 20 22 20 18 21 10 9 11 10 14 12 13 11 11 8 8
16 16 19 20 21 21 21 19 15 11 11 11 9 11 15 21 22 25 29 31 31 34 31 30 27 24 24 22 22 22 23 21 17 16 15 16 15 16 18 16 17 13 12
13 18 17 16 16 16 16 13 13 13 12 11 10 9 11 12 21 24 25 29 29 28 30 30 29 28 28 27 23 25 24 23 21 21 20 19 17 19 20 19 17 20 20
11 10 16 17 13 10 10 11 12 13 10 10 9 9 10 13 14 15 19 27 32 30 28 32 28 25 26 27 24 19 17 18 22 20 20 17 18 20 21 20 22 21 20
14 10 10 12 14 11 8 8 11 14 9 9 9 7 7 7 16 20 19 17 20 26 29 28 29 28 27 22 18 20 21 19 15 18 19 18 18 21 21 21 23 26 23
23 20 12 10 10 9 8 8 7 7 10 8 7 8 13 7 6 5 6 5 5 15 26 24 27 25 21 18 19 22 19 22 18 16 16 16 17 18 19 21 21 23 22
26 25 24 19 16 12 10 8 7 6 6 7 8 9 14 6 12 6 2 2 6 1 22 25 23 20 20 19 18 19 17 16 16 13 13 14 16 17 18 21 22 22 21
31 25 24 24 24 19 16 13 10 9 7 9 9 9 8 2 2 0 4 8 2 1 3 24 21 22 21 20 18 16 16 15 14 13 13 14 15 16 17 19 19 18 17
32 31 27 25 26 24 22 21 15 12 10 9 9 10 6 3 2 2 5 4 1 5 2 8 15 19 20 19 17 18 18 18 16 15 14 14 15 16 16 16 16 16 14
33 26 29 29 29 24 21 22 22 16 13 14 12 13 11 5 4 2 3 3 7 7 8 4 6 16 22 18 10 10 15 17 14 16 15 15 16 15 16 17 16 15 13
10 23 24 28 31 25 19 23 22 20 18 19 19 14 15 11 5 4 5 5 7 6 11 11 10 14 9 13 8 13 9 15 15 13 13 13 13 14 15 15 15 13 11
34 33 21 31 31 34 27 35 28 25 21 22 23 21 19 18 12 8 4 4 5 6 7 13 16 16 12 13 10 7 12 13 18 12 13 16 13 13 13 12 12 12 9
35 9 33 27 27 38 38 37 30 29 26 26 25 25 23 21 14 14 9 6 6 4 7 12 18 17 18 16 13 14 13 15 15 15 11 17 15 14 12 11 11 11 8
34 36 33 30 32 30 24 23 24 26 29 28 26 26 28 27 16 16 15 15 16 14 11 8 8 12 17 17 12 14 15 17 21 18 14 20 16 11 11 12 9 8 8
21 21 23 24 9 10 11 11 16 20 30 23 25 24 27 29 24 17 18 19 21 22 20 14 11 13 16 16 13 15 20 20 24 23 14 17 15 13 12 10 9 9 7
11 14 15 16 15 11 9 7 10 14 32 32 31 27 27 27 29 23 19 23 23 22 23 21 19 19 17 18 12 13 16 16 19 22 15 13 16 15 16 10 5 8 8
Wind_Direction
130 113 117 271 204 282 147 121 265 269 266 266 264 264 269 259 245 276 106 142 146 149 146 162 174 164 161 158 156 155 149 148 142 146 148 144 145 156 156 149 146 163 135
135 126 123 202 270 273 272 169 140 269 275 259 245 248 269 265 286 331 28 107 136 153 145 150 163 169 169 159 155 155 157 158 152 154 157 158 159 164 172 174 175 172 167
149 141 157 274 268 268 267 271 272 277 273 260 238 241 265 261 288 314 4 89 127 146 157 164 167 166 168 168 162 163 160 166 166 169 170 169 175 176 183 181 187 193 191
161 150 148 148 267 267 267 265 269 264 264 267 244 244 270 276 306 299 315 319 321 311 175 201 189 182 175 176 171 173 174 174 179 185 185 186 188 189 191 193 195 197 196
171 167 167 166 153 266 264 268 273 279 272 262 253 255 258 277 293 302 305 299 299 303 297 187 197 195 190 188 179 183 188 188 190 194 194 195 197 199 201 202 205 211 210
173 174 174 172 165 162 264 266 272 271 281 286 286 273 271 271 282 293 299 302 301 295 296 285 249 225 203 202 195 197 200 203 206 204 204 204 205 210 210 212 218 224 224
183 177 177 177 178 182 176 250 271 275 277 287 291 291 288 288 280 280 288 294 299 297 297 297 299 279 275 212 210 212 218 224 217 217 214 212 211 215 219 222 229 235 233
182 181 179 178 181 199 257 215 232 276 280 285 287 289 284 283 285 282 284 284 287 294 295 295 297 292 289 286 264 227 226 230 223 221 218 218 220 226 231 229 237 240 234
182 182 182 183 183 183 190 243 258 244 274 285 285 292 295 290 295 302 295 290 287 285 287 291 294 295 294 294 298 301 272 240 226 232 228 226 238 244 234 245 315 320 291
184 185 185 183 185 187 191 195 226 239 270 280 288 284 287 298 299 298 303 302 297 291 289 287 288 292 294 293 293 296 298 262 236 242 264 244 294 276 317 326 325 327 319
183 185 185 185 188 190 197 198 207 213 249 278 269 293 285 287 290 294 294 297 298 296 296 298 298 295 294 293 293 298 299 293 280 286 303 311 322 327 331 333 329 318 314
183 186 187 189 193 194 197 199 203 220 233 223 246 275 287 292 291 293 291 292 292 291 293 292 293 297 295 292 293 290 296 297 293 298 310 316 319 321 326 327 327 326 323
191 189 190 195 195 197 198 206 212 215 225 238 248 245 274 281 294 295 295 292 295 302 296 293 292 290 291 291 300 294 291 293 296 300 307 315 316 319 322 326 327 323 320
228 206 190 192 202 214 213 207 210 215 231 256 243 263 275 290 294 291 293 295 296 298 298 289 295 296 293 291 295 299 300 297 296 298 304 313 315 317 321 328 325 328 326
261 240 215 208 202 212 236 238 210 206 232 231 219 248 234 279 297 295 297 298 302 301 297 297 294 299 292 293 297 294 295 298 299 301 304 311 314 316 319 325 321 317 321
266 269 259 253 256 232 236 251 240 229 211 254 227 208 199 202 206 285 297 225 262 304 299 306 302 307 303 298 298 294 300 291 295 300 304 310 314 319 321 321 325 322 321
263 267 268 271 272 266 263 258 255 252 238 262 277 198 192 192 185 316 332 159 179 196 303 305 314 311 304 300 302 305 311 305 300 306 313 316 318 320 322 319 317 318 319
264 264 265 267 270 268 268 267 264 268 259 273 282 287 190 263 202 304 347 172 123 87 343 299 312 304 299 303 305 311 314 316 315 314 318 321 320 323 323 325 326 329 329
267 267 265 262 265 267 268 265 266 269 266 266 278 284 198 225 212 295 324 334 6 356 114 171 311 314 306 307 311 308 307 306 316 315 320 322 323 324 327 333 333 334 335
270 258 267 269 265 266 264 261 264 266 266 270 275 282 284 275 280 260 305 316 327 330 339 358 175 202 271 311 337 333 317 310 319 315 318 321 322 325 325 327 332 334 337
256 266 274 266 264 262 260 262 263 263 266 268 273 278 282 284 255 275 308 310 315 322 320 326 328 321 332 322 327 322 326 318 315 320 323 323 323 322 324 325 328 334 338
221 250 204 220 257 257 265 253 259 262 264 265 268 274 279 284 286 282 263 300 318 315 316 313 313 311 315 314 320 317 315 316 310 314 316 315 318 317 320 323 328 330 333
218 271 264 277 264 240 246 256 259 261 263 264 267 269 275 281 286 292 287 279 287 265 306 312 305 308 309 307 311 309 309 309 310 318 329 321 319 311 313 318 319 322 323
259 254 261 265 212 204 267 270 268 266 264 266 268 270 272 274 278 285 292 297 300 302 302 299 296 309 309 312 307 305 304 302 302 310 317 316 326 327 317 311 313 315 313
281 272 280 276 235 235 260 271 274 274 265 271 272 274 274 275 278 277 284 289 294 297 302 303 297 305 306 309 308 305 298 297 296 301 312 316 326 329 324 313 308 310 306
326 309 304 288 279 272 277 262 261 272 270 274 276 278 276 277 277 278 281 286 291 294 296 299 299 298 299 298 298 294 297 296 300 303 309 308 314 320 319 319 301 303 303